Home > Weather > Waterbury > Past weeks

Flag for U.S.A. Weather for the Past 2 Weeks in Waterbury, Connecticut, U.S.A.

Now
21 °F

Overcast.


Feels Like: 10 °F
Forecast: 8 / 24 °F
Wind: 10 mph from Southwest

Location: Oxford

Current Time: Feb 12, 2016 at 5:33:13 PM

Latest Report: Feb 12, 2016 at 3:50 PM


Visibility: 10 mi

Pressure: 30.01 "Hg

Humidity: 35%

Dew point: -2 °F

Location of WaterburyLocation

Historic Weather in Waterbury — Graph

°F

Waterbury Temperature Yesterday

Maximum temperature yesterday: 28 °F (at 12:35 AM)
Minimum temperature yesterday: 10 °F (at 11:55 PM)
Average temperature yesterday: 20 °F

High & Low Weather Summary for the Past Weeks

 TemperatureHumidityPressure
High129 °F (Feb 1, 6:00 AM)100% (Feb 3, 8:50 PM)30.40 "Hg (Feb 3, 8:50 PM)
Low3 °F (Feb 12, 3:35 AM)3% (Feb 1, 6:00 AM)29.41 "Hg (Jan 29, 11:50 AM)
Average32 °F55%29.93 "Hg
* Reported Jan 28 3:50 PM — Feb 12 3:50 PM, Waterbury, Weather by CustomWeather, © 2016

Note: Actual official high and low records may vary slightly from our data, if they occured in-between our weather recording intervals... More about our weather records

Advertising

Waterbury Weather History for the Previous 24 Hours

 ConditionsComfort  
Time TempWeatherWind HumidityBarometerVisibility
3:50 PM
Fri, Feb 12
21 °FOvercast.10 mph35%30.01 "Hg10 mi
2:50 PM21 °FOvercast.10 mph38%30.02 "Hg10 mi
1:50 PM21 °FOvercast.6 mph35%30.04 "Hg10 mi
12:50 PM19 °FPassing clouds.6 mph38%30.09 "Hg10 mi
11:50 AM19 °FPassing clouds.5 mph38%30.13 "Hg10 mi
10:50 AM18 °FPartly sunny.7 mph41%30.16 "Hg10 mi
9:50 AM16 °FPartly sunny.7 mph45%30.18 "Hg10 mi
8:50 AM12 °FPassing clouds.6 mph48%30.18 "Hg10 mi
7:50 AM7 °FSunny.5 mph51%30.17 "Hg10 mi
6:50 AM3 °FClear.5 mph55%30.17 "Hg10 mi
5:55 AM3 °FClear.No wind55%30.17 "Hg10 mi
5:35 AM3 °FClear.3 mph55%30.16 "Hg10 mi
5:15 AM3 °FClear.No wind55%30.16 "Hg10 mi
4:55 AM5 °FClear.6 mph55%30.15 "Hg10 mi
4:35 AM5 °FClear.5 mph55%30.15 "Hg10 mi
4:15 AM5 °FClear.3 mph51%30.14 "Hg10 mi
3:55 AM3 °FClear.No wind55%30.14 "Hg10 mi
3:35 AM3 °FClear.No wind50%30.15 "Hg10 mi
3:15 AM7 °FClear.No wind47%30.14 "Hg10 mi
2:55 AM7 °FClear.No wind51%30.15 "Hg10 mi
2:35 AM7 °FClear.No wind51%30.15 "Hg10 mi
2:15 AM9 °FClear.3 mph47%30.14 "Hg10 mi
1:55 AM9 °FClear.3 mph47%30.13 "Hg10 mi
1:35 AM9 °FClear.8 mph47%30.12 "Hg10 mi
1:15 AM9 °FClear.7 mph43%30.12 "Hg10 mi
12:55 AM10 °FPassing clouds.9 mph40%30.11 "Hg10 mi
12:35 AM10 °FPassing clouds.8 mph40%30.10 "Hg10 mi
11:55 PM
Thu, Feb 11
10 °FClear.6 mph40%30.08 "Hg10 mi
11:35 PM12 °FClear.5 mph37%30.07 "Hg10 mi
11:15 PM12 °FClear.7 mph34%30.06 "Hg10 mi
10:55 PM12 °FClear.7 mph37%30.05 "Hg10 mi
10:35 PM12 °FClear.8 mph34%30.05 "Hg10 mi
9:55 PM12 °FClear.10 mph34%30.04 "Hg10 mi
9:35 PM12 °FClear.10 mph34%30.04 "Hg10 mi
8:50 PM12 °FPassing clouds.9 mph37%30.03 "Hg10 mi
7:50 PM14 °FPassing clouds.12 mph37%30.00 "Hg10 mi
6:50 PM16 °FPassing clouds.15 mph31%29.97 "Hg10 mi
5:50 PM16 °FPassing clouds.14 mph31%29.93 "Hg10 mi
Weather by CustomWeather, © 2016

See weather overviewHow to use our weather pages